Anchorage, AK

2:36 AM AKST on February 27, 2017 (GMT -0900)
Ted Stevens Anchorage Int'l Airport

Weather History for PANC - October, 2012

Change the Weather History Date:

Monday, October 8, 2012

  Actual Average Record
Temperature  
Mean Temperature 48 °F 39 °F  
Max Temperature 51 °F 45 °F 57 °F (1993)
Min Temperature 45 °F 33 °F 16 °F (1958)
Degree Days  
Heating Degree Days 17    
Month to date heating degree days 164  
Since 1 July heating degree days 1229  
Cooling Degree Days 0    
Month to date cooling degree days 0  
Year to date cooling degree days 0  
Moisture  
Dew Point 45 °F    
Average Humidity 87    
Maximum Humidity 93    
Minimum Humidity 80    
Precipitation  
Precipitation T in 0.08 in 0.68 in (1980)
Month to date precipitation 2.37 0.70  
Year to date precipitation 19.09 12.98  
Snow  
Snow 0.00 in 0.20 in 5.50 in (1980)
Month to date snowfall 0.0 1.2  
Since 1 June snowfall 0.2  
Since 1 July snowfall 0.2 1.6  
Since 1 September snowfall 1.6  
Snow Depth 0.00 in    
Sea Level Pressure  
Sea Level Pressure 30.19 in    
Wind  
Wind Speed 6 mph (SW)    
Max Wind Speed 13 mph    
Max Gust Speed 27 mph    
Visibility 8 miles    
Events Fog    
T = Trace of Precipitation, MM = Missing Value Source: NWS Daily Summary

Daily Weather History Graph

Daily Weather History Graph

Search for Another Location

Airport or City:

Trip Planner

Search our weather history database for the weather conditions in past years. The results will help you decide how hot, cold, wet, or windy it might be!

Date:

Astronomy

Oct. 08, 2012 Rise Set
Actual Time 8:25 AM AKDT 7:07 PM AKDT
Civil Twilight 7:42 AM AKDT 7:50 PM AKDT
Nautical Twilight 6:52 AM AKDT 8:40 PM AKDT
Astronomical Twilight 6:00 AM AKDT 9:31 PM AKDT
Moon No Moon Rise 4:43 PM AKDT (10/8)
Length of Visible Light 12h 07m
Length of Day
10h 41m
Last Quarter, 45% of the Moon is Illuminated
Oct 8
Last Quarter
Oct 15
New
Oct 21
First Quarter
Oct 29
Full
Nov 6
Last Quarter

Hourly Weather History & Observations

Time (AKDT) Temp. Windchill Dew Point Humidity Pressure Visibility Wind Dir Wind Speed Gust Speed Precip Events Conditions
12:49 AM 46.4 °F 45.2 °F 44.6 °F 93% 30.24 in 3.0 mi Variable 3.5 mph - N/A   Overcast
12:53 AM 46.9 °F - 45.0 °F 93% 30.24 in 3.0 mi Calm Calm - N/A   Overcast
1:26 AM 46.4 °F - 44.6 °F 93% 30.24 in 10.0 mi Calm Calm - N/A   Overcast
1:53 AM 46.9 °F - 45.0 °F 93% 30.23 in 10.0 mi East 4.6 mph - N/A   Overcast
2:53 AM 46.9 °F - 44.1 °F 90% 30.23 in 10.0 mi WNW 4.6 mph - N/A   Overcast
3:53 AM 50.0 °F - 44.1 °F 80% 30.21 in 10.0 mi SSE 11.5 mph 26.5 mph N/A   Overcast
4:53 AM 50.0 °F - 45.0 °F 83% 30.20 in 10.0 mi South 5.8 mph - N/A   Overcast
5:53 AM 48.9 °F - 43.0 °F 80% 30.20 in 10.0 mi SSE 12.7 mph 23.0 mph N/A   Overcast
6:04 AM 50.0 °F - 42.8 °F 76% 30.20 in 10.0 mi South 8.1 mph 19.6 mph N/A   Overcast
6:53 AM 48.9 °F - 45.0 °F 86% 30.19 in 10.0 mi SE 6.9 mph - N/A   Overcast
7:53 AM 48.9 °F - 44.1 °F 83% 30.20 in 10.0 mi SSE 3.5 mph - N/A   Overcast
8:53 AM 48.9 °F - 44.1 °F 83% 30.19 in 10.0 mi SSE 6.9 mph - N/A   Overcast
9:53 AM 48.0 °F - 44.1 °F 86% 30.20 in 10.0 mi South 5.8 mph - N/A   Overcast
10:53 AM 48.0 °F - 45.0 °F 89% 30.21 in 9.0 mi SSE 4.6 mph - N/A   Overcast
11:19 AM 48.2 °F - 44.6 °F 87% 30.20 in 2.5 mi SSE 5.8 mph - N/A   Overcast
11:53 AM 48.0 °F - 46.0 °F 93% 30.21 in 2.5 mi SSE 4.6 mph - 0.01 in   Overcast
12:18 PM 48.2 °F - 46.4 °F 93% 30.20 in 7.0 mi South 4.6 mph - N/A   Overcast
12:53 PM 50.0 °F - 46.0 °F 86% 30.20 in 10.0 mi South 5.8 mph - N/A   Overcast
1:53 PM 51.1 °F - 46.9 °F 86% 30.19 in 10.0 mi SSW 5.8 mph - N/A   Mostly Cloudy
2:53 PM 52.0 °F - 46.0 °F 80% 30.19 in 10.0 mi Calm Calm - N/A   Mostly Cloudy
3:05 PM 51.8 °F - 46.4 °F 82% 30.18 in 10.0 mi SSW 3.5 mph - N/A   Mostly Cloudy
3:38 PM 51.8 °F - 46.4 °F 82% 30.18 in 10.0 mi Calm Calm - N/A   Overcast
3:53 PM 52.0 °F - 46.9 °F 83% 30.19 in 10.0 mi Calm Calm - N/A   Mostly Cloudy
4:53 PM 52.0 °F - 46.9 °F 83% 30.18 in 10.0 mi NW 5.8 mph - N/A   Mostly Cloudy
5:40 PM 48.2 °F - 46.4 °F 93% 30.17 in 10.0 mi NW 4.6 mph - N/A Fog Patches of Fog
5:51 PM 48.2 °F - 46.4 °F 93% 30.17 in 2.0 mi WNW 4.6 mph - N/A Fog Patches of Fog
5:53 PM 48.9 °F - 46.9 °F 93% 30.18 in 2.0 mi WNW 4.6 mph - N/A Fog Patches of Fog
5:59 PM 48.2 °F - 46.4 °F 93% 30.17 in 2.0 mi NW 5.8 mph - N/A   Overcast
6:10 PM 48.2 °F - 46.4 °F 93% 30.17 in 4.0 mi WNW 4.6 mph - N/A   Overcast
6:53 PM 48.0 °F - 46.0 °F 93% 30.17 in 7.0 mi WNW 5.8 mph - N/A Fog Overcast
7:10 PM 48.2 °F - 46.4 °F 93% 30.16 in 10.0 mi WNW 5.8 mph - N/A   Overcast
7:28 PM 48.2 °F - 46.4 °F 93% 30.17 in 10.0 mi Variable 5.8 mph - N/A   Overcast
7:53 PM 46.9 °F - 45.0 °F 93% 30.17 in 10.0 mi WNW 4.6 mph - N/A   Overcast
8:29 PM 46.4 °F 43.5 °F 44.6 °F 93% 30.16 in 10.0 mi WNW 5.8 mph - N/A   Overcast
8:53 PM 46.9 °F - 45.0 °F 93% 30.17 in 10.0 mi NW 4.6 mph - N/A   Overcast
9:53 PM 46.9 °F - 45.0 °F 93% 30.17 in 10.0 mi Calm Calm - N/A   Overcast
10:53 PM 46.9 °F - 45.0 °F 93% 30.18 in 5.0 mi Calm Calm - N/A   Overcast
11:45 PM 46.4 °F - 44.6 °F 93% 30.17 in 2.0 mi Calm Calm - N/A   Overcast
11:53 PM 46.4 °F - 44.6 °F 93% 30.17 in 2.0 mi Calm Calm - N/A   Overcast